Retour au catalogue

CZ-3B DEB

ActifGTO
NORAD 40164·DEBRIS·🇨🇳 China

Lancé Sep 4, 2010 depuis Xichang Satellite Launch Center

Loading…

TLE

VieillissantSource: Space-Track

Époque: Sep 14, 2026, 12:31 UTC

1 40164U 10042R   26257.52188850  .00000027  00000-0  00000+0 0  9999
2 40164  26.1171 213.8995 7329246  58.6981  18.8152  1.89873074 88965

Suivez CZ-3B DEB en temps réel avec AllMySat

Download on the App Store